Location: Buckland
(65.9785°N, 161.1281°W)
Time: 23:19:25
(UTC+00:00)

Transit 4A - Pass Details

Date: 02 December 2020
Orbit: 864 x 980 km, 66.8° (Epoch: 20 January)

Event Time Altitude Azimuth Distance (km) Brightness Sun altitude
Rises 16:58:08 0° 164° (SSE) 3,658 11.4 -17.7°
Reaches altitude 10° 17:01:34 10° 146° (SE) 2,727 11.1 -17.4°
Maximum altitude 17:05:30 17° 107° (ESE) 2,247 11.0 -17.0°
Drops below altitude 10° 17:09:28 10° 69° (ENE) 2,744 11.1 -16.6°
Sets 17:12:56 0° 51° (NE) 3,692 11.5 -16.3°
